Location: Bonningues
(50.7927°N, 2.0150°E)
Time: 19:32:20
(UTC+00:00)

Cosmos 921 Rocket - Pass Details

Date: 08 August 2020
Orbit: 572 x 631 km, 75.8° (Epoch: 21 September)

Event Time Altitude Azimuth Distance (km) Brightness Sun altitude
Rises 21:26:21 0° 337° (NNW) 2,826 8.0 -15.6°
Reaches altitude 10° 21:28:35 10° 336° (NNW) 1,913 6.8 -15.9°
Maximum altitude 21:32:49 76° 252° (WSW) 600 3.0 -16.3°
Enters shadow 21:34:52 29° 170° (S) 1,058 3.7 -16.4°
